Weather in Mullovka

Russia / Ulyanovsk Oblast     54°13′15″N   49°23′43″E
temp.,
°C
wind,
m/s
gust,
m/s
humid.,
%
clouds,
%
prec.,
mm/h
press.,
hPa
HPBL,
m
13 april, tue
tue1301:00+8e389683 0.0 1035143
04:00+7e249381 0.0 103664
07:00+7ese259678 0.0 103685
10:00+13se357553 0.0 1036320
13:00+17sse355549 0.0 1034727
16:00+18sse355265 0.0 1033873
19:00+14se22725 0.0 103211
22:00+11se22806 0.0 103217
14 april, wed
wed1401:00+9sse22825 0.0 103212
04:00+8se22855 0.0 103211
07:00+7se22845 0.0 103138
10:00+13se36765 0.0 1030437
13:00+16se45625 0.0 1028827
16:00+17se45575 0.0 10271051
19:00+14se24720 0.0 102572
22:00+11se25850 0.0 102589
15 april, thu
thu1501:00+9se22890 0.0 102428
04:00+8se22890 0.0 102313
07:00+8se22860 0.0 102335
10:00+13se24631 0.0 1022342
13:00+18sse23470 0.0 1021918
16:00+19s24430 0.0 10191320
19:00+16wsw11590 0.0 101811
22:00+13nne11630 0.0 101810
16 april, fri
fri1601:00+11ne11701 0.0 101710
04:00+9ne22775 0.0 101710
07:00+10nne22754 0.0 101719
10:00+15nne235635 0.0 1016388
13:00+18n344464 0.0 10161489
16:00+18n554234 0.0 10161998
19:00+13nne69703 0.1 1017709
22:00+9nne511795 0.1 1019487
17 april, sat
sat1701:00+7nne411825 0.0 1020542
04:00+5nne410757 0.0 1021470
07:00+4nne410725 0.0 1022583
10:00+8nne58494 0.0 10231241
13:00+10nne69375 0.0 10231726
16:00+10nne79374 0.0 10241732
19:00+7nne610400 0.0 10261487
22:00+4nne410410 0.0 1028630